STARLINK-1487, 45758

Orbit data source: Space-Track

STARLINK-1487, 45758 is a payload satellite owned by SpaceX/Seattle (US) in LEO that was launched on Sat, 13 Jun 2020 UTC via an FALCON 9 launch vehicle from the Air Force Eastern Test Range (AFETR). Payloads include a variety of satellites, spacecraft, and rockets equipped with specific instruments for various scientific and technological missions. These include communications satellites like Starlink; space stations such as the ISS; scientific satellites like the Hubble; Earth observation satellites from companies like Planet Labs, Umbra, and HawkEye 360; GPS; miniature CubeSats for education and research; and military/defense satellites.

Loading next visibility...
STARLINK-1487 details
Identifier
45758, 2020-038AE
Orbit
LEO
Last TLE update9 hours ago
Origin
Flag of USSpaceX/Seattle (US)
ManufacturerSpaceX/Seattle
MissionPartially operational Commercial Communications
Bus & MotorSTARLINK, Unknown motor
Mass260 kg wet, ~248 kg dry
Launch date (UTC)
2020-06-13 (5 years ago)
Launch vehicle
FALCON 9
Launch site
Air Force Eastern Test Range (AFETR)
Object type
Payload
Rocket body
Debris
Shape & HBRBox + 1 Pan, 8.86 m
Radar Cross Section13.562 m², Large (>1 m²)

Expand to show TLE details & history

TLE from 9 hours ago
0 STARLINK-1487
1 45758U 20038AE  24361.09506959  .00050338  00000-0  92222-3 0  9990
2 45758  53.0324 285.6731 0004760  99.4772 260.6773 15.48831795252882
Epoch: 2024-12-26T02:16Z
Definitive object data (Epoch: 2024-12-26T02:16:54.012Z)
Latitude-0.00005°
Longitude156.36862°
Altitude421.561 km
Speed7.659 km/s
True Right ascension19h 02m 41s
True Declination0° 00' 00"
Sunlit
Object was in daylight at TLE epoch
Visualization TLE readout
Latitude-18.13311°
Longitude140.3434°
Altitude426.762 km
Speed7.655 km/s
Apparent Right ascension20h 00m 58s
Apparent Declination-33° 53' 10"
Sunlit
Object is in daylight
Visualization observer readout
Local Sidereal Time10:49:52
Azimuth93.405° ESE
Elevation-56.019°
Doppler factor1
Orbital elements
Apogee altitude423.658 km
Perigee altitude417.185 km
Semi-major axis6,798.559 km
Eccentricity0.000476
Inclination53.0324°
RAAN285.6731°
Arg. of periapsis99.4772°
True anomaly260.62348°
Mean anomaly260.6773°
Eccentric anomaly260.65039°
Mean motion3.87184 °/min
BSTAR0.00092222
Orbital period92.98 mins
Loading maneuver chart data...

STARLINK-1487 Visibility forecast

Observer location: undefined°, undefined

Span
Click to sort rows by Start time (UTC) header in descending order
Start Az.
Max El. time (UTC)
Max El. Az.
Max El.
End time (UTC)
End Az.
4 mins2024-12-26 21:01:31.505Z178.01° S2024-12-26 21:03:31.505Z134.742° SE20.808°2024-12-26 21:05:31.505Z87.487° E
4 mins2024-12-26 22:38:31.505Z272.488° WNW2024-12-26 22:40:31.505Z341.389° N30.01°2024-12-26 22:42:31.505Z29.619° NE
4 mins2024-12-27 05:08:31.505Z284.355° WNW2024-12-27 05:10:31.505Z204.74° SW33.413°2024-12-27 05:12:31.505Z157.436° SSE
|